When you browse on this site, cookies collect data to enhance your experience and personalize the content and advertising you see.
Visit our Privacy Policy to learn more. By continuing to use the site, you agree to this use of cookies and data.
  • Em Portugal
  • Lista de países
  • Para 7 dias
  • Temperatura da água
  • Mapas de satélite
  • Mapa do tempo
  • Widgets de tempo
  • user-avatar
    Iniciar Sessão

    Previsão horária em Hakodate

    Hoje, 19 Janeiro, Sábado

    Tempo Temperatura Precipitação Vento Pressão Humidade
    00:00 -6°C° 0.1 mm 8 m/s 759 mmHg 76%
    01:00 -6°C° 0 mm 8 m/s 759 mmHg 75%
    02:00 -6°C° 0 mm 8 m/s 759 mmHg 75%
    03:00 -6°C° 0 mm 7 m/s 759 mmHg 74%
    04:00 -6°C° 0 mm 7 m/s 759 mmHg 73%
    05:00 -6°C° 0 mm 7 m/s 759 mmHg 72%
    06:00 -6°C° 0 mm 7 m/s 760 mmHg 71%
    07:00 -4°C° 0 mm 7 m/s 760 mmHg 71%
    08:00 -5°C° 0 mm 8 m/s 760 mmHg 71%
    09:00 -4°C° 0 mm 7 m/s 760 mmHg 69%
    10:00 -5°C° 0 mm 8 m/s 760 mmHg 68%
    11:00 -4°C° 0 mm 8 m/s 760 mmHg 67%
    12:00 -4°C° 0 mm 9 m/s 759 mmHg 66%
    13:00 -4°C° 0 mm 9 m/s 759 mmHg 66%
    14:00 -4°C° 0 mm 9 m/s 759 mmHg 66%
    15:00 -3°C° 0 mm 7 m/s 759 mmHg 65%
    16:00 -3°C° 0 mm 7 m/s 759 mmHg 66%
    17:00 -4°C° 0 mm 7 m/s 759 mmHg 67%
    18:00 -4°C° 0 mm 7 m/s 759 mmHg 68%
    19:00 -4°C° 0 mm 7 m/s 759 mmHg 68%
    20:00 -4°C° 0 mm 7 m/s 759 mmHg 69%
    21:00 -4°C° 0 mm 6 m/s 759 mmHg 68%
    22:00 -3°C° 0 mm 6 m/s 759 mmHg 69%
    23:00 -3°C° 0 mm 6 m/s 758 mmHg 69%

    Amanhã, 20 Janeiro, Domingo

    Tempo Temperatura Precipitação Vento Pressão Humidade
    00:00 -3°C° 0 mm 6 m/s 758 mmHg 70%
    01:00 -3°C° 0 mm 6 m/s 758 mmHg 70%
    02:00 -3°C° 0 mm 6 m/s 757 mmHg 70%
    03:00 -3°C° 0 mm 6 m/s 756 mmHg 70%
    04:00 -2°C° 0 mm 5 m/s 756 mmHg 70%
    05:00 -2°C° 0 mm 4 m/s 755 mmHg 70%
    06:00 -2°C° 0 mm 4 m/s 755 mmHg 70%
    07:00 -1°C° 0.1 mm 3 m/s 754 mmHg 70%
    08:00 0°C° 0.1 mm 3 m/s 753 mmHg 71%
    09:00 +1°C° 0.1 mm 2 m/s 753 mmHg 72%
    10:00 +1°C° 0.5 mm 2 m/s 752 mmHg 77%
    11:00 +2°C° 0.5 mm 1 m/s 751 mmHg 83%
    12:00 +2°C° 0.5 mm 1 m/s 750 mmHg 88%
    13:00 +1°C° 0.7 mm 2 m/s 749 mmHg 87%
    14:00 0°C° 0.7 mm 3 m/s 749 mmHg 85%
    15:00 0°C° 0.7 mm 3 m/s 748 mmHg 84%
    16:00 -2°C° 0.3 mm 5 m/s 748 mmHg 81%
    17:00 -3°C° 0.3 mm 6 m/s 748 mmHg 79%
    18:00 -3°C° 0.3 mm 7 m/s 748 mmHg 77%
    19:00 -5°C° 0.3 mm 9 m/s 748 mmHg 75%
    20:00 -7°C° 0.3 mm 10 m/s 748 mmHg 74%
    21:00 -8°C° 0.3 mm 11 m/s 748 mmHg 72%
    22:00 -9°C° 0.1 mm 11 m/s 748 mmHg 72%
    23:00 -9°C° 0.1 mm 11 m/s 748 mmHg 73%

    Depois de amanhã, 21 Janeiro, Segunda-feira

    Tempo Temperatura Precipitação Vento Pressão Humidade
    00:00 -11°C° 0.1 mm 12 m/s 748 mmHg 74%
    01:00 -11°C° 0.2 mm 12 m/s 749 mmHg 75%
    02:00 -11°C° 0.2 mm 12 m/s 749 mmHg 75%
    03:00 -12°C° 0.2 mm 12 m/s 749 mmHg 75%
    04:00 -12°C° 0.2 mm 12 m/s 749 mmHg 76%
    05:00 -12°C° 0.2 mm 12 m/s 749 mmHg 77%
    06:00 -12°C° 0.2 mm 12 m/s 749 mmHg 77%
    07:00 -12°C° 0.2 mm 12 m/s 749 mmHg 77%
    08:00 -12°C° 0.2 mm 12 m/s 749 mmHg 77%
    09:00 -11°C° 0.2 mm 11 m/s 749 mmHg 76%
    10:00 -11°C° 0.2 mm 11 m/s 749 mmHg 75%
    11:00 -11°C° 0.2 mm 11 m/s 749 mmHg 75%
    12:00 -11°C° 0.2 mm 11 m/s 749 mmHg 74%
    13:00 -11°C° 0.1 mm 11 m/s 749 mmHg 74%
    14:00 -10°C° 0.1 mm 10 m/s 749 mmHg 75%
    15:00 -10°C° 0.1 mm 10 m/s 749 mmHg 76%
    16:00 -10°C° 0.1 mm 10 m/s 749 mmHg 76%
    17:00 -10°C° 0.1 mm 10 m/s 750 mmHg 76%
    18:00 -10°C° 0.1 mm 9 m/s 750 mmHg 76%
    19:00 -10°C° 0.1 mm 9 m/s 750 mmHg 76%
    20:00 -10°C° 0.1 mm 9 m/s 750 mmHg 76%
    21:00 -9°C° 0.1 mm 9 m/s 750 mmHg 76%
    22:00 -8°C° 0.1 mm 8 m/s 750 mmHg 76%
    23:00 -8°C° 0.1 mm 8 m/s 750 mmHg 76%

    22 Janeiro, Terça-feira

    Tempo Temperatura Precipitação Vento Pressão Humidade
    00:00 -8°C° 0.1 mm 8 m/s 750 mmHg 76%
    01:00 -8°C° 0.1 mm 7 m/s 750 mmHg 76%
    02:00 -8°C° 0.1 mm 7 m/s 750 mmHg 76%
    03:00 -8°C° 0.1 mm 7 m/s 750 mmHg 76%
    04:00 -7°C° 0.1 mm 7 m/s 750 mmHg 76%
    05:00 -7°C° 0.1 mm 7 m/s 750 mmHg 76%
    06:00 -7°C° 0.1 mm 8 m/s 750 mmHg 76%
    07:00 -7°C° 0.1 mm 8 m/s 750 mmHg 75%
    08:00 -7°C° 0.1 mm 8 m/s 751 mmHg 75%
    09:00 -6°C° 0.1 mm 8 m/s 751 mmHg 75%
    10:00 -6°C° 0.1 mm 8 m/s 751 mmHg 74%
    11:00 -6°C° 0.1 mm 8 m/s 751 mmHg 73%
    12:00 -6°C° 0.1 mm 9 m/s 751 mmHg 73%
    13:00 -6°C° 0.1 mm 9 m/s 751 mmHg 73%
    14:00 -6°C° 0.1 mm 9 m/s 751 mmHg 73%
    15:00 -6°C° 0.1 mm 9 m/s 751 mmHg 74%
    16:00 -6°C° 0.1 mm 8 m/s 752 mmHg 74%
    17:00 -6°C° 0.1 mm 8 m/s 752 mmHg 75%
    18:00 -6°C° 0.1 mm 7 m/s 753 mmHg 75%
    19:00 -6°C° 0.1 mm 7 m/s 753 mmHg 74%
    20:00 -6°C° 0.1 mm 7 m/s 753 mmHg 74%
    21:00 -5°C° 0.1 mm 6 m/s 753 mmHg 73%
    22:00 -5°C° 0.1 mm 6 m/s 753 mmHg 75%
    23:00 -5°C° 0.1 mm 6 m/s 753 mmHg 77%

    23 Janeiro, Quarta-feira

    Tempo Temperatura Precipitação Vento Pressão Humidade
    00:00 -5°C° 0.1 mm 6 m/s 753 mmHg 79%
    01:00 -4°C° 0.2 mm 5 m/s 753 mmHg 81%
    02:00 -4°C° 0.2 mm 5 m/s 753 mmHg 82%
    03:00 -3°C° 0.2 mm 4 m/s 752 mmHg 84%
    04:00 -3°C° 0.1 mm 4 m/s 752 mmHg 83%
    05:00 -4°C° 0.1 mm 3 m/s 752 mmHg 82%
    06:00 -3°C° 0.1 mm 2 m/s 752 mmHg 81%
    07:00 -3°C° 0 mm 2 m/s 752 mmHg 81%
    08:00 -2°C° 0 mm 2 m/s 752 mmHg 80%
    09:00 +1°C° 0 mm 1 m/s 752 mmHg 80%
    10:00 -1°C° 0 mm 2 m/s 752 mmHg 77%
    11:00 +1°C° 0 mm 2 m/s 751 mmHg 74%
    12:00 +1°C° 0 mm 2 m/s 750 mmHg 71%
    13:00 0°C° 0 mm 3 m/s 750 mmHg 71%
    14:00 0°C° 0 mm 3 m/s 749 mmHg 71%
    15:00 -1°C° 0 mm 4 m/s 749 mmHg 71%
    16:00 -1°C° 0.2 mm 4 m/s 749 mmHg 75%
    17:00 -2°C° 0.2 mm 4 m/s 749 mmHg 79%
    18:00 -2°C° 0.2 mm 5 m/s 749 mmHg 83%
    19:00 -4°C° 1.1 mm 6 m/s 750 mmHg 85%
    20:00 -4°C° 1.1 mm 7 m/s 750 mmHg 88%
    21:00 -5°C° 1.1 mm 8 m/s 750 mmHg 90%
    22:00 -6°C° 0.5 mm 7 m/s 751 mmHg 86%
    23:00 -6°C° 0.5 mm 7 m/s 751 mmHg 81%

    24 Janeiro, Quinta-feira

    Tempo Temperatura Precipitação Vento Pressão Humidade
    00:00 -5°C° 0.5 mm 6 m/s 752 mmHg 77%
    01:00 -5°C° 0 mm 5 m/s 753 mmHg 76%
    02:00 -4°C° 0 mm 4 m/s 753 mmHg 75%
    03:00 -4°C° 0 mm 3 m/s 754 mmHg 74%
    04:00 -4°C° 0 mm 4 m/s 754 mmHg 73%
    05:00 -5°C° 0 mm 4 m/s 755 mmHg 71%
    06:00 -6°C° 0 mm 5 m/s 755 mmHg 69%
    07:00 -5°C° 0 mm 5 m/s 755 mmHg 68%
    08:00 -4°C° 0 mm 6 m/s 756 mmHg 67%
    09:00 -3°C° 0 mm 7 m/s 756 mmHg 66%
    10:00 -3°C° 0.1 mm 7 m/s 757 mmHg 68%
    11:00 -2°C° 0.1 mm 7 m/s 757 mmHg 69%
    12:00 -1°C° 0.1 mm 7 m/s 757 mmHg 71%
    13:00 -1°C° 0.2 mm 7 m/s 757 mmHg 71%
    14:00 -1°C° 0.2 mm 7 m/s 757 mmHg 71%
    15:00 -1°C° 0.2 mm 8 m/s 758 mmHg 71%
    16:00 -2°C° 0.1 mm 7 m/s 758 mmHg 73%
    17:00 -3°C° 0.1 mm 7 m/s 759 mmHg 75%
    18:00 -3°C° 0.1 mm 7 m/s 760 mmHg 77%
    19:00 -4°C° 0 mm 6 m/s 760 mmHg 78%
    20:00 -4°C° 0 mm 6 m/s 760 mmHg 78%
    21:00 -4°C° 0 mm 5 m/s 760 mmHg 78%
    22:00 -4°C° 0 mm 5 m/s 760 mmHg 78%
    23:00 -4°C° 0 mm 5 m/s 760 mmHg 79%
    Mostrar mais